Chicago Executive, IL

9:33 AM CST on December 09, 2019 (GMT -0600)
Chicago Executive

Weather History for KPWK - October, 2019

Change the Weather History Date:

Friday, October 25, 2019

  Actual Average Record
Temperature  
Mean Temperature 42 °F 49 °F  
Max Temperature 48 °F 58 °F 75 °F (2004)
Min Temperature 36 °F 40 °F 27 °F (2006)
Degree Days  
Heating Degree Days 22 16  
Month to date heating degree days 276 305  
Since 1 July heating degree days 283 417  
Cooling Degree Days 0 0  
Month to date cooling degree days 13 11  
Year to date cooling degree days 996 789  
Moisture  
Dew Point 33 °F    
Average Humidity 67    
Maximum Humidity 86    
Minimum Humidity 44    
Precipitation  
Precipitation 0.00 in 0.10 in 0.26 in (2009)
Month to date precipitation 2.47 2.45  
Year to date precipitation 39.16 28.14  
Sea Level Pressure  
Sea Level Pressure 30.33 in    
Wind  
Wind Speed 3 mph ()    
Max Wind Speed 8 mph    
Max Gust Speed 13 mph    
Visibility 10.0 miles    
Events      
T = Trace of Precipitation, MM = Missing Value Source: Averaged Metar Reports

Daily Weather History Graph

Daily Weather History Graph

Search for Another Location

Airport or City:

Astronomy

Oct. 25, 2019 Rise Set
Actual Time 7:15 AM CDT 5:55 PM CDT
Civil Twilight 6:47 AM CDT 6:23 PM CDT
Nautical Twilight 6:14 AM CDT 6:56 PM CDT
Astronomical Twilight 5:41 AM CDT 7:28 PM CDT
Moon 3:52 AM CDT (10/25) 5:01 PM CDT (10/25)
Length of Visible Light 11h 36m
Length of Day
10h 39m
Waning Crescent, 9% of the Moon is Illuminated
Oct 25
Waning Crescent
Oct 27
New
Nov 4
First Quarter
Nov 12
Full
Nov 19
Last Quarter

Hourly Weather History & Observations

Time (CDT) Temp. Windchill Dew Point Humidity Pressure Visibility Wind Dir Wind Speed Gust Speed Precip Events Conditions
12:52 AM 44.1 °F 41.5 °F 36.0 °F 73% 30.36 in 10.0 mi NNW 4.6 mph - N/A   Partly Cloudy
1:52 AM 44.1 °F 42.5 °F 36.0 °F 73% 30.36 in 10.0 mi NNW 3.5 mph - N/A   Mostly Cloudy
2:52 AM 44.1 °F 42.5 °F 36.0 °F 73% 30.36 in 10.0 mi NNW 3.5 mph - N/A   Clear
3:52 AM 44.1 °F 41.5 °F 37.0 °F 76% 30.36 in 10.0 mi NW 4.6 mph - N/A   Overcast
4:52 AM 44.1 °F - 36.0 °F 73% 30.37 in 10.0 mi Calm Calm - N/A   Partly Cloudy
5:52 AM 43.0 °F 41.3 °F 36.0 °F 76% 30.37 in 10.0 mi NNW 3.5 mph - N/A   Mostly Cloudy
6:52 AM 44.1 °F 41.5 °F 36.0 °F 73% 30.37 in 10.0 mi NNW 4.6 mph - N/A   Overcast
7:52 AM 43.0 °F 38.8 °F 36.0 °F 76% 30.38 in 10.0 mi NW 6.9 mph - N/A   Mostly Cloudy
8:52 AM 43.0 °F 40.3 °F 35.1 °F 74% 30.38 in 10.0 mi NW 4.6 mph - N/A   Clear
9:52 AM 44.1 °F - 34.0 °F 68% 30.38 in 10.0 mi Calm Calm - N/A   Clear
10:52 AM 45.0 °F 41.8 °F 34.0 °F 65% 30.38 in 10.0 mi NW 5.8 mph - N/A   Clear
11:52 AM 46.9 °F - 33.1 °F 59% 30.37 in 10.0 mi NNW 3.5 mph - N/A   Clear
12:52 PM 48.9 °F - 32.0 °F 52% 30.35 in 10.0 mi NNW 5.8 mph - N/A   Clear
1:52 PM 48.9 °F - 30.0 °F 48% 30.32 in 10.0 mi West 4.6 mph - N/A   Clear
2:52 PM 48.9 °F - 28.9 °F 46% 30.29 in 10.0 mi WSW 4.6 mph - N/A   Clear
3:52 PM 48.0 °F - 27.0 °F 44% 30.29 in 10.0 mi Variable 3.5 mph - N/A   Clear
4:52 PM 46.9 °F - 27.0 °F 46% 30.27 in 10.0 mi West 5.8 mph - N/A   Clear
6:52 PM 43.0 °F - 28.9 °F 58% 30.28 in 10.0 mi Calm Calm - N/A   Clear
7:52 PM 39.9 °F - 30.9 °F 70% 30.29 in 10.0 mi Calm Calm - N/A   Clear
8:52 PM 39.0 °F - 30.9 °F 73% 30.27 in 10.0 mi Calm Calm - N/A   Clear
9:52 PM 37.9 °F - 30.9 °F 76% 30.27 in 10.0 mi Calm Calm - N/A   Clear
10:52 PM 37.0 °F - 32.0 °F 82% 30.25 in 10.0 mi Calm Calm - N/A   Clear
11:52 PM 36.0 °F - 32.0 °F 86% 30.24 in 10.0 mi Calm Calm - N/A   Clear